GW4575 Weather Reports


time (UTC)temp
C
wind
direction
speed
KPH
gust
KPH
rain 1hr
cm
rain 24hr
cm
rain mn
cm
humidity
%
barometer
mb
20260905095724 15 189 0.0 1.6 0.00 0.00 0.00 99 1021.4
20260905095223 15 177 3.2 3.2 0.00 0.00 0.00 99 1021.4
20260905094718 15 200 0.0 1.6 0.00 0.00 0.00 99 1021.5
20260905094213 15 149 1.6 3.2 0.00 0.00 0.00 99 1021.5
20260905093713 15 173 3.2 4.8 0.00 0.00 0.00 99 1021.3
20260905093209 15 112 1.6 3.2 0.00 0.00 0.00 99 1021.4
20260905092704 15 130 1.6 4.8 0.00 0.00 0.00 99 1021.3
20260905092200 15 108 0.0 3.2 0.00 0.00 0.00 99 1021.4
20260905091659 15 118 1.6 3.2 0.00 0.00 0.00 99 1021.2
20260905091200 15 113 1.6 4.8 0.00 0.00 0.00 99 1021.2
20260905090659 15 162 1.6 3.2 0.00 0.00 0.00 99 1021.3
20260905090155 15 145 3.2 4.8 0.00 0.00 0.00 99 1021.0
20260905085653 15 154 3.2 4.8 0.00 0.00 0.00 99 1021.2
20260905085149 15 146 3.2 6.4 0.00 0.00 0.00 99 1021.2
20260905084648 15 173 4.8 6.4 0.00 0.00 0.00 98 1021.1
20260905084143 15 162 3.2 4.8 0.00 0.00 0.00 98 1021.2
20260905083638 15 123 4.8 6.4 0.00 0.00 0.00 97 1021.0
20260905083135 15 110 3.2 9.7 0.00 0.00 0.00 97 1021.2
20260905082630 15 129 1.6 6.4 0.00 0.00 0.00 96 1021.4
20260905082125 15 143 3.2 11.3 0.00 0.00 0.00 95 1021.1
20260905081619 15 150 3.2 4.8 0.00 0.00 0.00 95 1021.4
20260905081114 15 158 3.2 3.2 0.00 0.00 0.00 94 1021.3
20260905080614 16 89 4.8 9.7 0.00 0.00 0.00 94 1021.2
20260905080109 15 119 4.8 6.4 0.00 0.00 0.00 93 1021.3
20260905075608 15 67 3.2 4.8 0.00 0.00 0.00 94 1021.1
20260905075108 15 100 3.2 4.8 0.00 0.00 0.00 94 1021.1
20260905074607 15 127 3.2 6.4 0.00 0.00 0.00 95 1021.1
20260905074103 15 124 1.6 3.2 0.00 0.00 0.00 95 1021.2
20260905073558 15 144 1.6 4.8 0.00 0.00 0.00 94 1021.3
20260905073054 15 158 1.6 3.2 0.00 0.00 0.00 93 1021.2
20260905072553 16 164 1.6 4.8 0.00 0.00 0.00 93 1021.2
20260905072048 16 166 0.0 1.6 0.00 0.00 0.00 92 1021.2
20260905071545 16 115 1.6 4.8 0.00 0.00 0.00 92 1021.2
20260905071040 16 184 1.6 3.2 0.00 0.00 0.00 91 1021.2
20260905070535 16 99 3.2 9.7 0.00 0.00 0.00 91 1021.0
20260905070031 16 185 1.6 4.8 0.00 0.00 0.00 92 1021.1
20260905065529 16 154 3.2 4.8 0.00 0.00 0.00 91 1020.9
20260905065024 16 115 3.2 4.8 0.00 0.00 0.00 90 1021.1
20260905064519 16 144 1.6 3.2 0.00 0.00 0.00 90 1020.9
20260905064014 16 169 1.6 4.8 0.00 0.00 0.00 90 1021.0
20260905063513 16 108 3.2 6.4 0.00 0.00 0.00 90 1020.9
20260905063010 16 173 3.2 9.7 0.00 0.00 0.00 90 1021.0
20260905062509 16 148 1.6 4.8 0.00 0.00 0.00 90 1021.0
20260905062004 16 199 3.2 9.7 0.00 0.00 0.00 90 1021.1
20260905061459 16 156 4.8 9.7 0.00 0.00 0.00 90 1021.0
20260905060958 16 158 4.8 6.4 0.00 0.00 0.00 89 1021.0
20260905060454 16 94 3.2 6.4 0.00 0.00 0.00 89 1021.0
20260905055949 16 105 3.2 4.8 0.00 0.00 0.00 89 1021.1
20260905055448 16 130 3.2 9.7 0.00 0.00 0.00 88 1021.0
20260905054943 16 117 3.2 6.4 0.00 0.00 0.00 89 1021.0
20260905054439 16 139 3.2 4.8 0.00 0.00 0.00 89 1021.2
20260905053938 16 112 3.2 3.2 0.00 0.00 0.00 90 1021.0
20260905053433 16 139 3.2 3.2 0.00 0.00 0.00 90 1021.2
20260905052929 16 92 3.2 6.4 0.00 0.00 0.00 90 1021.2
20260905052428 16 172 1.6 4.8 0.00 0.00 0.00 91 1021.1
20260905051928 16 143 1.6 4.8 0.00 0.00 0.00 92 1021.0
20260905051418 16 187 1.6 3.2 0.00 0.00 0.00 93 1021.1
20260905050915 16 146 3.2 3.2 0.00 0.00 0.00 93 1021.0
20260905050411 16 159 1.6 3.2 0.00 0.00 0.00 94 1020.9
20260905045906 16 146 1.6 3.2 0.00 0.00 0.00 94 1021.2
20260905045401 16 112 0.0 1.6 0.00 0.00 0.00 94 1021.0
20260905044856 16 182 0.0 3.2 0.00 0.00 0.00 95 1021.1
20260905044351 16 181 1.6 1.6 0.00 0.00 0.00 96 1021.1
20260905043845 16 182 0.0 0.0 0.00 0.00 0.00 95 1021.3
20260905043339 16 183 0.0 0.0 0.00 0.00 0.00 94 1021.0
20260905042834 16 175 0.0 1.6 0.00 0.00 0.00 94 1021.2
20260905042334 16 123 3.2 3.2 0.00 0.00 0.00 94 1020.9
20260905041829 16 174 0.0 0.0 0.00 0.00 0.00 93 1021.1
20260905041325 16 195 0.0 0.0 0.00 0.00 0.00 93 1021.1
20260905040820 16 189 0.0 3.2 0.00 0.00 0.00 92 1020.9
20260905040319 16 127 3.2 4.8 0.00 0.00 0.00 92 1021.1
20260905035818 16 192 1.6 3.2 0.00 1.40 1.40 92 1020.9
20260905035314 16 168 1.6 4.8 0.00 1.40 1.40 92 1020.9
20260905034811 16 24 1.6 3.2 0.00 1.40 1.40 94 1021.1
20260905034306 16 164 1.6 3.2 0.00 1.40 1.40 94 1021.0
20260905033804 16 193 0.0 4.8 0.00 1.40 1.40 94 1020.7
20260905033300 16 118 3.2 6.4 0.00 1.40 1.40 95 1020.8
20260905032759 16 153 1.6 9.7 0.00 1.40 1.40 95 1021.0
20260905032255 16 171 1.6 4.8 0.00 1.40 1.40 96 1020.6
20260905031750 16 88 4.8 9.7 0.00 1.40 1.40 97 1020.9
20260905031246 16 121 4.8 11.3 0.00 1.40 1.40 97 1020.8
20260905030740 16 121 4.8 12.9 0.00 1.40 1.40 97 1020.9
20260905030236 16 129 1.6 4.8 0.00 1.40 1.40 97 1020.6
20260905025730 16 77 1.6 9.7 0.00 1.40 1.40 97 1020.6
20260905025226 16 111 1.6 4.8 0.00 1.40 1.40 97 1020.7
20260905024721 16 96 8.0 9.7 0.00 1.40 1.40 98 1020.8
20260905024218 16 124 6.4 6.4 0.00 1.40 1.40 98 1020.5
20260905023712 16 152 1.6 4.8 0.00 1.40 1.40 98 1020.7
20260905023212 16 130 3.2 4.8 0.00 1.40 1.40 99 1020.7
20260905022711 16 128 1.6 9.7 0.00 1.40 1.40 99 1020.8
20260905022207 16 142 1.6 3.2 0.00 1.40 1.40 98 1020.7
20260905021707 16 79 3.2 3.2 0.00 1.40 1.40 98 1020.7
20260905021202 16 122 3.2 6.4 0.00 1.40 1.40 98 1020.9
20260905020656 16 150 1.6 4.8 0.00 1.40 1.40 98 1020.7
20260905020146 16 111 4.8 6.4 0.00 1.40 1.40 97 1020.6
20260905015644 17 167 3.2 4.8 0.00 1.40 1.40 97 1020.7
20260905015139 17 137 1.6 9.7 0.00 1.40 1.40 96 1020.5
20260905014632 17 77 1.6 4.8 0.00 1.40 1.40 95 1020.4
20260905014128 17 154 6.4 9.7 0.00 1.40 1.40 94 1020.3
20260905013625 17 115 4.8 17.7 0.00 1.40 1.40 95 1020.4
20260905013120 17 178 3.2 6.4 0.00 1.40 1.40 96 1020.3
20260905012620 17 160 3.2 12.9 0.00 1.40 1.40 97 1020.2
20260905012117 17 136 4.8 9.7 0.00 1.40 1.40 97 1020.3
20260905011612 17 162 3.2 6.4 0.00 1.40 1.40 98 1020.1
20260905011108 17 78 8.0 9.7 0.00 1.40 1.40 98 1020.1
20260905010608 17 117 4.8 14.5 0.00 1.40 1.40 98 1020.2
20260905010104 17 126 3.2 9.7 0.00 1.40 1.40 97 1020.1
20260905005559 17 120 3.2 9.7 0.00 1.40 1.40 97 1020.0
20260905005055 17 135 4.8 11.3 0.00 1.40 1.40 96 1020.0
20260905004549 17 138 4.8 6.4 0.00 1.40 1.40 96 1019.9
20260905004044 17 195 3.2 11.3 0.00 1.40 1.40 95 1019.7
20260905003540 17 168 3.2 9.7 0.00 1.40 1.40 95 1019.8
20260905003037 17 190 3.2 6.4 0.00 1.40 1.40 95 1019.7
20260905002532 17 87 9.7 11.3 0.00 1.40 1.40 94 1019.6
20260905002031 17 154 3.2 4.8 0.00 1.40 1.40 95 1019.6
20260905001526 17 126 1.6 9.7 0.00 1.40 1.40 95 1019.8
20260905001020 17 137 6.4 9.7 0.00 1.40 1.40 94 1019.8
20260905000516 18 88 9.7 12.9 0.00 1.40 1.40 93 1019.9
20260905000012 18 147 4.8 11.3 0.00 1.40 1.40 92 1019.8
20260904235507 18 174 6.4 11.3 0.00 1.40 1.40 91 1019.8
20260904235000 18 61 3.2 16.1 0.00 1.40 1.40 90 1019.7
20260904234455 18 184 4.8 12.9 0.00 1.40 1.40 89 1019.8
20260904233951 18 187 6.4 11.3 0.00 1.40 1.40 89 1019.6
20260904233446 18 104 4.8 12.9 0.00 1.40 1.40 89 1019.9
20260904232942 18 135 4.8 11.3 0.00 1.40 1.40 88 1019.7
20260904232438 18 150 3.2 6.4 0.00 1.40 1.40 88 1019.8
20260904231935 18 126 6.4 11.3 0.00 1.40 1.40 87 1019.6
20260904231429 18 88 4.8 12.9 0.00 1.40 1.40 87 1019.8
20260904230925 18 214 6.4 12.9 0.00 1.40 1.40 87 1019.7
20260904230424 19 183 6.4 20.9 0.00 1.40 1.40 86 1019.6
20260904225919 19 112 4.8 14.5 0.00 1.40 1.40 86 1019.7
20260904225417 19 173 8.0 11.3 0.00 1.40 1.40 85 1019.6
20260904224916 19 114 3.2 9.7 0.00 1.40 1.40 86 1019.7
20260904224412 18 178 6.4 12.9 0.00 1.40 1.40 87 1019.6
20260904223907 19 105 9.7 14.5 0.00 1.40 1.40 85 1019.6
20260904223406 19 102 4.8 11.3 0.00 1.40 1.40 86 1019.4
20260904222903 19 111 8.0 16.1 0.00 1.40 1.40 85 1019.3
20260904222402 19 193 6.4 14.5 0.00 1.40 1.40 85 1019.4
20260904221902 19 108 6.4 25.7 0.00 1.40 1.40 85 1019.4
20260904221357 20 75 4.8 11.3 0.00 1.40 1.40 84 1019.4
20260904220852 20 111 8.0 14.5 0.00 1.40 1.40 84 1019.4
20260904220351 20 173 4.8 9.7 0.00 1.40 1.40 84 1019.1
20260904215847 20 32 6.4 12.9 0.00 1.40 1.40 85 1019.3
20260904215342 20 109 11.3 17.7 0.00 1.40 1.40 85 1019.4
20260904214838 20 108 3.2 11.3 0.00 1.40 1.40 86 1019.2
20260904214333 20 85 6.4 14.5 0.00 1.40 1.40 86 1019.2
20260904213832 19 198 4.8 9.7 0.00 1.40 1.40 88 1019.2
20260904213327 19 138 12.9 16.1 0.00 1.40 1.40 88 1019.3
20260904212823 19 58 6.4 11.3 0.00 1.40 1.40 89 1019.0
20260904212317 19 101 9.7 14.5 0.00 1.40 1.40 90 1019.1
20260904211812 19 134 4.8 12.9 0.00 1.40 1.40 91 1019.3
20260904211307 19 199 4.8 11.3 0.00 1.40 1.40 91 1019.2
20260904210802 18 162 4.8 11.3 0.00 1.40 1.40 91 1019.1
20260904210301 18 167 6.4 11.3 0.00 1.40 1.40 91 1019.3
20260904205758 18 166 6.4 12.9 0.00 1.40 1.40 91 1019.3
20260904205254 18 199 8.0 14.5 0.00 1.40 1.40 91 1019.2
20260904204750 18 178 6.4 12.9 0.00 1.40 1.40 91 1019.3
20260904204246 18 204 6.4 9.7 0.00 1.40 1.40 91 1019.4
20260904203742 19 188 1.6 12.9 0.00 1.40 1.40 91 1019.2
20260904203238 18 145 9.7 16.1 0.00 1.40 1.40 90 1019.4
20260904202734 19 159 9.7 12.9 0.00 1.40 1.40 89 1019.2
20260904202230 19 143 3.2 4.8 0.00 1.40 1.40 90 1019.2
20260904201725 19 125 3.2 6.4 0.00 1.40 1.40 89 1019.1
20260904201225 19 121 9.7 14.5 0.00 1.40 1.40 89 1019.1
20260904200720 19 151 6.4 6.4 0.00 1.40 1.40 89 1019.1
20260904200215 19 127 11.3 17.7 0.00 1.40 1.40 88 1019.0
20260904195714 19 90 6.4 11.3 0.00 1.40 1.40 89 1018.9
20260904195212 19 106 6.4 9.7 0.00 1.40 1.40 88 1019.0
20260904194708 19 143 6.4 14.5 0.00 1.40 1.40 88 1018.9
20260904194201 19 213 9.7 14.5 0.00 1.40 1.40 89 1019.0
20260904193657 19 144 8.0 17.7 0.00 1.40 1.40 90 1018.8
20260904193153 19 169 6.4 16.1 0.00 1.40 1.40 89 1018.9
20260904192653 19 147 8.0 12.9 0.00 1.40 1.40 90 1018.9
20260904192148 19 122 8.0 11.3 0.00 1.40 1.40 90 1018.8
20260904191645 18 78 6.4 9.7 0.00 1.40 1.40 90 1018.8
20260904191141 18 144 8.0 12.9 0.00 1.40 1.40 91 1018.9
20260904190637 18 150 11.3 16.1 0.00 1.40 1.40 90 1019.0
20260904190133 18 101 6.4 11.3 0.00 1.40 1.40 90 1019.0
20260904185630 19 85 3.2 4.8 0.00 1.40 1.40 91 1019.0
20260904185129 18 96 3.2 9.7 0.00 1.40 1.40 91 1018.9
20260904184628 18 152 6.4 16.1 0.00 1.40 1.40 92 1019.1
20260904184124 18 203 3.2 9.7 0.00 1.40 1.40 92 1019.1
20260904183620 18 52 4.8 9.7 0.00 1.40 1.40 92 1019.1
20260904183114 18 183 4.8 6.4 0.00 1.40 1.40 92 1019.0
20260904182609 18 120 4.8 6.4 0.00 1.40 1.40 93 1019.0
20260904182104 18 72 9.7 16.1 0.00 1.40 1.40 92 1019.0
20260904181601 19 83 8.0 11.3 0.00 1.40 1.40 91 1019.0
20260904181100 19 178 8.0 17.7 0.00 1.40 1.40 90 1019.0
20260904180554 19 15 3.2 11.3 0.00 1.40 1.40 90 1018.8
20260904180049 19 53 14.5 24.1 0.00 1.40 1.40 91 1018.9
20260904175543 19 9 3.2 16.1 0.00 1.40 1.40 90 1018.7
20260904175042 19 99 8.0 11.3 0.00 1.40 1.40 90 1018.5
20260904174537 19 68 6.4 20.9 0.00 1.40 1.40 91 1018.4
20260904174034 18 174 6.4 11.3 0.00 1.40 1.40 92 1018.4
20260904173533 18 112 11.3 14.5 0.00 1.40 1.40 91 1018.4
20260904173029 18 106 11.3 20.9 0.00 1.40 1.40 91 1018.6
20260904172525 18 159 6.4 20.9 0.00 1.40 1.40 92 1018.5
20260904172024 18 117 4.8 12.9 0.00 1.40 1.40 92 1018.5
20260904171519 19 81 8.0 12.9 0.00 1.40 1.40 91 1018.6
20260904171015 19 192 4.8 16.1 0.00 1.40 1.40 92 1018.4
20260904170510 18 130 8.0 24.1 0.00 1.40 1.40 92 1018.4
20260904170007 18 68 12.9 17.7 0.00 1.40 1.40 93 1018.4
20260904165505 18 80 6.4 11.3 0.00 1.40 1.40 93 1018.1
20260904165005 18 130 9.7 17.7 0.00 1.40 1.40 92 1018.5
20260904164500 18 178 6.4 17.7 0.00 1.40 1.40 93 1018.4
20260904163956 18 50 8.0 14.5 0.00 1.40 1.40 93 1018.4
20260904163450 18 146 11.3 16.1 0.00 1.40 1.40 94 1018.6
20260904162949 18 114 11.3 16.1 0.00 1.40 1.40 94 1018.5
20260904162444 18 188 4.8 14.5 0.00 1.40 1.40 93 1018.6
20260904161934 18 167 8.0 22.5 0.00 1.40 1.40 93 1018.4
20260904161430 18 48 11.3 16.1 0.00 1.40 1.40 92 1018.6
20260904160925 20 97 8.0 12.9 0.00 1.40 1.40 90 1018.3
20260904160420 19 222 6.4 11.3 0.00 1.40 1.40 91 1018.5
20260904155915 18 88 6.4 11.3 0.00 1.40 1.40 92 1018.3
20260904155410 18 89 4.8 12.9 0.00 1.40 1.40 94 1018.4
20260904154909 18 109 4.8 11.3 0.00 1.40 1.40 94 1018.1
20260904154403 18 157 9.7 14.5 0.00 1.40 1.40 94 1018.4
20260904153859 18 178 6.4 16.1 0.00 1.40 1.40 95 1018.4
20260904153354 18 125 8.0 11.3 0.00 1.40 1.40 95 1018.4
20260904152850 17 74 6.4 14.5 0.00 1.40 1.40 96 1018.3
20260904152349 17 169 6.4 9.7 0.00 1.40 1.40 96 1018.4
20260904151844 18 150 6.4 16.1 0.00 1.40 1.40 96 1018.4
20260904151343 18 79 9.7 16.1 0.00 1.40 1.40 95 1018.5
20260904150839 17 147 9.7 11.3 0.00 1.40 1.40 97 1018.3
20260904150334 17 171 11.3 14.5 0.00 1.40 1.40 97 1018.3
20260904145832 17 132 9.7 14.5 0.00 1.40 1.40 98 1018.3
20260904145329 17 67 8.0 17.7 0.00 1.40 1.40 98 1018.4
20260904144824 17 168 4.8 12.9 0.00 1.40 1.40 98 1018.3
20260904144320 17 134 6.4 12.9 0.00 1.40 1.40 98 1018.1
20260904143815 17 114 4.8 11.3 0.00 1.40 1.40 98 1018.3
20260904143312 17 152 6.4 14.5 0.00 1.40 1.40 99 1018.3
20260904142808 17 18 6.4 11.3 0.00 1.40 1.40 99 1018.1
20260904142306 17 102 6.4 12.9 0.00 1.40 1.40 99 1018.4
20260904141803 17 38 8.0 11.3 0.00 1.40 1.40 99 1018.1
20260904141259 17 121 6.4 12.9 0.00 1.40 1.40 99 1018.1
20260904140754 17 210 3.2 9.7 0.00 1.40 1.40 99 1018.1
20260904140250 17 107 4.8 11.3 0.00 1.40 1.40 99 1018.3
20260904135749 17 120 4.8 16.1 0.00 1.40 1.40 99 1018.1
20260904135244 17 91 4.8 12.9 0.00 1.40 1.40 99 1017.9
20260904134740 17 141 6.4 9.7 0.00 1.40 1.40 99 1017.9
20260904134234 17 105 6.4 9.7 0.00 1.40 1.40 99 1017.9
20260904133729 17 58 8.0 16.1 0.00 1.40 1.40 99 1017.8
20260904133225 17 120 8.0 11.3 0.00 1.40 1.40 99 1017.9
20260904132724 17 93 6.4 11.3 0.00 1.40 1.40 99 1018.0
20260904132219 17 242 6.4 12.9 0.00 1.40 1.40 99 1017.7
20260904131719 17 190 3.2 14.5 0.00 1.40 1.40 99 1017.7
20260904131215 17 140 8.0 11.3 0.00 1.40 1.40 99 1017.6
20260904130714 17 111 4.8 11.3 0.00 1.40 1.40 99 1017.5
20260904130213 16 115 9.7 16.1 0.00 1.40 1.40 99 1017.6
20260904125710 16 163 6.4 14.5 0.00 1.40 1.40 99 1017.5
20260904125205 16 78 8.0 12.9 0.00 1.40 1.40 99 1017.4
20260904124700 16 155 6.4 16.1 0.00 1.40 1.40 99 1017.7
20260904124156 16 213 8.0 12.9 0.00 1.40 1.40 99 1017.4
20260904123656 16 105 3.2 11.3 0.00 1.40 1.40 99 1017.4
20260904123152 16 97 8.0 11.3 0.00 1.40 1.40 99 1017.3
20260904122652 16 86 4.8 16.1 0.00 1.40 1.40 99 1017.0
20260904122147 16 157 4.8 11.3 0.00 1.40 1.40 99 1016.8
20260904121642 16 299 4.8 11.3 0.00 1.40 1.40 99 1016.5
20260904121138 16 170 4.8 16.1 0.00 1.40 1.40 99 1016.6
20260904120634 16 138 6.4 11.3 0.00 1.40 1.40 99 1017.0
20260904120130 16 160 4.8 11.3 0.00 1.40 1.40 99 1017.2
20260904115625 16 177 4.8 9.7 0.00 1.40 1.40 99 1017.3
20260904115120 16 204 1.6 4.8 0.00 1.40 1.40 99 1017.4
20260904114619 16 52 6.4 14.5 0.00 1.40 1.40 99 1017.4
20260904114114 16 102 4.8 11.3 0.00 1.40 1.40 99 1017.2
20260904113608 16 128 4.8 6.4 0.00 1.40 1.40 99 1017.5
20260904113107 16 143 4.8 6.4 0.00 1.40 1.40 99 1017.3
20260904112603 16 127 3.2 6.4 0.00 1.40 1.40 99 1017.6
20260904112059 16 145 3.2 6.4 0.00 1.40 1.40 99 1017.3
20260904111554 16 60 6.4 11.3 0.13 1.40 1.40 99 1017.4
20260904111050 16 158 1.6 6.4 0.13 1.40 1.40 99 1017.1
20260904110544 16 86 1.6 6.4 0.00 1.37 1.37 99 1017.1
20260904110040 16 132 6.4 9.7 0.00 1.37 1.37 99 1017.0
20260904105534 16 161 1.6 4.8 0.00 1.37 1.37 99 1016.9
20260904105029 16 164 3.2 9.7 0.61 1.37 1.37 99 1016.9
20260904104525 16 137 3.2 11.3 0.61 1.37 1.37 99 1017.2
20260904104020 16 175 4.8 4.8 0.18 1.27 1.27 99 1017.2
20260904103516 16 175 4.8 4.8 0.79 1.27 1.27 99 1017.5
20260904103012 16 189 3.2 4.8 0.79 1.24 1.24 99 1017.2
20260904102507 16 116 4.8 6.4 0.79 1.14 1.14 99 1017.0
20260904102003 16 210 0.0 0.0 0.30 1.07 1.07 99 1018.1
20260904101500 16 227 0.0 0.0 0.13 1.02 1.02 99 1017.7
20260904100955 16 156 0.0 3.2 0.00 0.99 0.99 99 1017.6
20260904100450 16 96 4.8 9.7 0.00 0.99 0.99 99 1017.1